Wind_Speed
15 15 16 15 16 16 15 15 15 15 14 14 13 12 12 12 12 11 10 10 10 11 11 10 10 9 9 10 10 10 11 11 10 10 10 11 11 11 12 12 12 13 13 13 12 12 12 12 13 13 12 11 11 11 11 11 11 12 13 13 14 15 15 16 17 17 17 18 19 20 20 21 21 22 22 22 23 23 22 22 22 22 22 22 22
18 17 16 16 16 17 17 16 16 16 15 15 14 13 13 12 12 12 11 11 11 11 11 11 11 11 11 11 11 11 11 11 10 10 10 10 10 10 10 11 11 12 12 13 13 13 13 13 14 14 14 13 13 12 12 12 13 13 14 14 14 15 15 16 16 16 15 16 17 18 19 20 20 21 21 21 21 21 20 21 21 21 22 21 21
19 19 19 17 17 18 18 17 17 17 16 16 15 14 14 14 13 13 12 12 12 12 12 12 12 12 12 12 12 12 11 11 10 10 11 10 10 10 10 11 11 11 11 12 12 12 13 13 14 14 14 14 14 14 14 14 14 15 15 15 15 15 16 16 16 15 14 15 16 16 18 19 19 20 21 21 21 21 21 21 21 21 22 22 21
20 21 21 20 20 19 19 19 18 18 17 17 16 16 15 15 15 14 14 14 14 13 13 13 13 13 13 13 13 13 12 12 11 11 11 11 11 11 11 11 11 11 11 11 11 12 12 13 14 14 14 14 14 14 14 15 15 15 15 15 16 16 16 16 16 16 15 15 15 16 17 18 19 20 20 21 21 21 21 22 22 22 22 22 21
19 21 23 23 23 22 21 20 20 19 18 18 17 17 17 17 16 16 15 15 15 15 14 14 14 14 14 14 14 14 14 13 12 12 12 12 11 11 11 11 11 11 11 11 11 11 11 12 13 13 14 14 14 14 15 15 15 15 15 15 16 16 16 16 16 17 16 16 17 17 17 18 19 19 20 20 21 21 22 22 22 22 23 22 21
20 21 22 24 25 24 23 23 21 21 20 19 19 19 19 18 18 17 17 17 16 16 15 15 15 15 15 15 15 15 15 14 14 13 13 12 12 12 12 11 11 12 12 11 11 11 11 11 12 13 13 13 14 14 14 15 15 15 15 15 16 16 16 17 17 17 17 18 18 18 18 18 18 18 19 20 20 21 22 22 22 22 23 23 23
22 22 22 23 24 25 26 25 24 23 22 22 22 21 21 20 19 19 19 18 18 17 17 16 16 16 16 16 15 15 15 15 14 14 14 14 13 13 13 13 12 13 12 12 11 11 11 11 12 13 13 13 13 13 14 14 14 15 16 16 17 17 17 17 18 18 18 18 18 18 18 18 18 19 19 20 21 21 22 22 22 22 23 24 24
26 25 24 23 24 25 26 27 27 26 26 25 24 24 23 22 21 21 21 20 20 19 19 18 17 17 17 17 16 16 16 16 15 15 15 15 15 14 14 14 14 14 13 13 13 13 12 12 13 13 14 14 13 13 14 14 14 15 16 16 17 17 17 17 18 18 18 18 18 18 18 18 18 19 19 20 20 21 21 22 22 22 23 24 24
30 28 27 25 24 24 26 27 28 28 28 27 26 26 25 24 24 23 23 22 22 21 21 20 20 19 18 18 17 17 17 17 16 16 16 15 15 15 15 15 15 15 15 15 14 14 14 14 14 15 15 15 14 14 14 15 15 15 15 16 16 16 16 17 17 17 17 17 17 17 17 17 18 18 19 20 21 21 21 22 22 23 24 25 25
33 32 31 29 27 26 26 26 26 28 28 28 28 27 27 26 26 25 25 24 24 23 23 22 21 21 20 19 19 18 18 19 18 17 17 16 16 16 16 16 16 16 16 16 16 16 16 16 16 17 16 16 16 16 16 16 16 16 16 16 16 17 17 17 17 17 17 17 17 18 18 18 18 19 20 20 21 22 22 23 24 25 25 25 25
35 35 34 32 31 30 29 27 27 27 28 28 28 27 28 28 28 27 26 26 25 25 24 23 23 22 22 21 21 20 22 21 19 18 18 18 17 17 16 16 16 17 17 17 17 17 18 18 18 18 18 18 18 18 18 17 17 17 17 17 18 18 18 18 18 19 19 19 19 19 20 20 19 19 20 20 21 23 24 25 26 26 27 27 26
34 34 35 34 34 33 32 31 30 29 28 28 28 28 29 29 29 29 28 28 27 26 25 24 24 23 23 23 23 24 24 22 20 20 20 19 19 18 18 18 18 18 18 18 18 18 19 19 19 19 18 19 19 20 19 19 19 19 19 19 19 19 20 20 20 20 20 21 21 21 20 21 20 20 21 21 23 25 25 26 27 27 28 28 28
32 33 33 34 34 34 34 34 33 31 29 30 30 30 31 31 31 30 30 30 28 27 26 25 24 25 25 25 26 27 25 23 22 22 22 21 21 20 19 19 19 19 20 20 20 20 20 20 20 20 20 21 21 21 21 21 21 21 21 21 20 21 21 21 22 22 22 22 22 21 21 22 22 22 23 24 25 26 26 26 27 28 28 29 29
31 31 32 33 33 34 34 34 35 34 33 33 33 33 32 32 32 31 31 31 29 27 27 26 26 26 27 27 28 28 26 24 24 23 22 22 22 21 21 20 20 21 21 21 21 21 21 21 21 22 22 23 22 22 22 22 21 21 21 21 21 21 21 22 22 23 23 23 23 23 22 23 24 24 25 26 27 27 27 27 27 27 28 29 29
29 29 30 32 33 34 34 34 35 36 36 37 37 35 34 33 33 32 31 30 29 28 27 27 27 27 28 29 29 28 26 26 25 24 24 23 23 23 22 22 22 22 23 22 22 22 22 23 23 23 24 24 24 23 23 23 23 23 22 22 22 21 21 22 22 23 23 24 24 24 24 24 25 25 26 28 29 30 30 29 28 28 29 29 28
27 28 30 31 32 33 34 34 34 35 37 38 38 37 36 35 35 32 29 29 29 27 27 28 28 28 29 30 30 27 26 26 26 25 25 24 23 23 23 23 23 23 23 23 23 24 24 24 24 24 25 26 25 24 25 25 25 25 25 25 24 23 23 23 24 24 25 27 27 27 28 28 28 29 30 31 31 32 32 32 30 31 32 31 30
24 26 28 28 29 30 31 32 31 32 34 35 35 36 37 37 36 32 28 29 29 26 26 28 28 28 29 30 30 28 27 27 26 25 25 24 23 23 23 23 23 23 23 23 23 24 25 24 24 24 25 25 24 24 25 25 26 27 27 27 26 25 25 25 26 26 27 28 29 30 31 31 32 32 32 32 33 35 36 35 34 34 34 34 32
20 22 24 23 23 24 25 26 27 29 30 30 31 33 35 36 36 32 28 30 30 27 27 28 29 30 30 29 28 28 27 27 25 25 25 24 24 24 24 24 24 23 24 24 24 25 25 24 24 25 25 24 23 24 25 25 26 27 28 28 27 27 26 26 26 27 28 28 28 30 32 32 33 33 33 33 35 37 38 38 37 36 36 35 35
20 20 20 20 19 19 20 22 23 24 25 25 26 28 29 31 32 30 29 32 31 27 26 29 32 33 30 27 26 26 26 26 26 25 26 26 26 26 26 26 25 24 25 26 25 26 26 26 26 26 26 26 25 26 27 27 28 29 29 29 29 29 28 27 28 29 31 31 30 31 32 33 33 33 34 34 35 37 38 39 38 38 38 38 37
21 20 20 20 20 20 21 22 21 21 21 21 21 23 24 25 27 29 29 31 32 29 27 29 31 31 29 26 26 25 24 25 25 25 25 25 26 26 26 26 25 25 26 27 26 27 28 28 28 28 29 29 29 29 29 29 29 30 30 31 31 30 30 30 30 32 33 34 34 34 35 35 35 35 35 36 37 38 38 38 38 39 39 39 38
20 22 23 23 23 22 22 22 22 22 22 20 18 18 18 17 21 26 29 32 33 30 28 28 28 27 25 25 25 23 23 23 23 23 23 23 24 24 24 25 25 25 25 26 26 27 28 29 30 29 30 31 30 29 28 28 29 30 31 31 31 31 31 31 31 32 33 34 35 35 36 36 36 36 36 36 38 38 38 37 36 37 37 36 35
19 21 22 22 21 21 19 20 22 23 21 19 16 15 13 12 13 16 19 23 25 25 24 23 21 20 21 22 22 22 22 22 22 22 22 22 21 21 21 22 23 24 25 26 26 26 26 27 28 28 29 29 28 27 27 27 28 29 30 31 31 32 32 32 31 31 31 32 32 33 33 33 33 33 33 33 34 36 36 35 34 35 35 34 32
16 17 18 18 16 16 17 18 20 21 20 18 16 15 15 14 12 11 11 14 19 23 25 24 22 22 22 22 22 23 22 22 21 21 21 21 21 20 20 21 21 22 24 25 25 24 24 25 26 26 27 28 27 27 27 27 28 29 29 30 31 31 31 31 31 31 31 31 32 32 33 33 33 33 32 32 33 33 34 34 33 33 33 32 32
14 13 14 14 13 15 17 16 16 18 18 17 15 15 15 15 13 13 13 15 18 22 23 23 23 23 23 21 21 20 18 17 17 17 16 17 17 18 19 20 20 20 21 21 21 22 23 24 25 26 26 27 26 26 26 27 27 27 27 28 29 30 30 30 30 30 31 32 32 32 33 33 33 33 33 32 32 33 33 33 33 32 32 32 32
12 10 9 9 10 12 14 13 10 12 14 15 14 14 15 15 14 13 12 13 15 16 15 16 16 16 15 14 13 11 11 11 11 10 10 10 10 12 14 15 16 16 17 18 19 20 21 22 23 23 23 23 23 22 22 22 23 22 23 24 25 25 25 25 25 25 26 27 28 28 29 30 30 30 30 30 30 31 32 33 32 31 31 31 31
11 10 9 9 9 10 11 10 9 9 11 13 13 13 12 12 13 13 12 12 12 10 10 10 9 8 8 8 7 7 8 9 9 9 9 10 10 11 11 12 14 15 16 17 19 20 21 22 22 22 22 22 22 21 22 22 22 22 23 23 24 23 23 23 23 23 23 23 23 24 24 24 25 25 26 26 26 27 28 29 30 30 31 31 31
11 11 11 10 9 9 9 9 9 9 9 10 10 10 9 9 10 11 10 10 9 8 7 8 8 7 8 8 8 8 8 9 10 10 11 12 13 13 14 15 16 17 19 20 22 23 24 24 25 25 25 24 24 24 25 25 25 26 26 26 26 26 26 26 26 26 26 26 25 25 25 25 25 25 25 24 24 25 25 25 26 27 29 31 31
11 11 11 11 10 10 10 10 9 9 8 8 8 8 8 8 8 8 8 8 8 7 8 8 8 9 10 10 10 11 11 12 13 13 14 16 16 17 18 19 20 22 23 24 25 26 26 27 27 26 26 26 26 26 26 27 27 27 27 27 27 27 28 28 28 29 29 29 29 29 29 29 29 28 28 27 27 27 26 26 26 27 27 28 29
12 11 11 10 10 10 10 10 9 9 9 9 9 9 9 9 9 8 8 8 8 9 9 10 10 11 12 12 13 14 14 15 16 16 18 19 20 20 21 22 23 24 25 25 26 26 26 26 26 26 26 26 26 26 26 26 27 27 27 27 27 27 27 27 28 28 29 29 30 31 31 31 31 31 31 31 31 31 31 30 30 29 29 29 29
13 13 12 12 11 11 11 11 11 11 11 10 10 10 10 11 11 10 10 10 11 11 12 12 13 14 14 15 16 17 17 18 18 19 20 20 21 22 23 23 23 24 24 25 25 25 25 24 24 24 24 24 24 24 24 24 25 25 25 25 26 26 26 26 26 26 27 27 28 29 30 31 31 32 32 32 32 33 33 33 33 33 32 32 32
14 14 14 14 14 14 14 13 13 13 13 13 13 13 13 13 13 13 13 13 13 14 14 15 16 16 17 18 18 19 19 20 20 20 21 21 22 22 22 22 23 23 23 23 23 24 24 23 23 23 23 23 23 23 22 22 22 23 23 23 24 24 24 24 24 25 25 25 26 27 27 28 29 30 30 30 31 32 33 34 34 34 34 34 35
15 15 15 15 15 16 16 16 16 16 16 15 16 16 16 16 16 16 16 16 16 17 17 18 18 18 19 20 20 20 21 21 21 21 21 21 21 21 22 21 21 21 22 22 21 21 22 22 22 22 22 22 22 22 22 22 22 22 22 22 23 23 23 23 23 24 24 25 25 25 26 26 27 27 27 28 29 29 30 31 32 33 33 33 34
14 15 16 16 16 16 17 17 17 17 17 18 18 18 18 18 18 18 18 18 19 19 19 19 20 20 20 21 21 21 22 22 22 22 21 21 21 21 21 20 20 20 20 20 20 20 20 20 21 21 22 22 22 22 22 22 23 23 23 23 24 24 24 25 25 25 25 26 26 26 27 27 27 27 27 27 28 28 29 30 30 31 32 32 32
14 15 16 16 16 16 17 17 17 18 18 19 19 20 20 19 19 19 19 19 19 20 20 20 20 20 21 21 21 21 21 22 22 21 21 21 21 21 21 20 20 20 20 20 20 21 21 21 21 22 22 23 23 23 24 24 24 25 25 25 26 26 26 27 27 27 27 28 28 29 29 29 29 29 29 29 29 29 30 30 31 31 32 32 33
15 16 16 17 17 17 17 17 18 18 18 19 19 20 19 19 19 19 19 19 19 19 20 20 20 20 20 21 21 21 21 21 20 20 20 20 20 20 21 20 21 21 21 21 21 22 22 23 23 23 24 24 24 25 25 26 26 26 27 27 28 28 28 29 29 29 29 30 31 31 31 31 31 31 31 31 31 31 31 32 32 33 33 33 34
17 18 18 18 19 19 18 18 18 19 19 19 20 20 19 19 19 19 19 19 19 18 18 18 18 18 18 18 19 19 19 19 19 19 19 19 19 20 20 21 21 22 22 22 22 23 24 24 24 25 26 26 26 27 27 27 28 28 29 29 29 30 31 31 31 32 32 33 33 34 34 34 34 34 34 34 34 35 35 34 35 35 35 35 35
19 19 19 19 19 19 19 19 19 19 19 19 19 20 19 19 19 19 18 18 18 18 17 16 16 16 16 16 17 17 18 18 19 19 19 19 20 21 22 22 23 23 24 24 24 24 25 25 26 26 27 27 28 28 28 29 29 30 30 31 31 31 32 33 33 34 35 35 36 36 37 37 37 37 37 37 37 38 38 38 38 38 37 38 38
18 19 18 18 19 19 20 20 20 20 20 20 20 20 19 19 19 19 19 18 18 17 17 16 16 16 16 16 17 18 19 19 20 20 20 21 21 22 23 24 24 25 25 26 26 26 27 27 27 28 28 28 29 29 30 30 31 31 32 32 33 33 33 34 35 35 36 36 37 38 39 39 40 40 40 40 40 40 40 41 41 41 40 40 40
16 17 18 18 19 20 20 21 22 22 21 21 21 20 19 18 18 19 19 18 18 18 18 18 18 18 18 19 20 20 21 21 22 22 22 22 22 23 23 24 24 25 25 26 26 27 28 28 29 30 30 31 31 31 31 32 32 33 34 34 34 35 35 36 36 37 37 37 37 38 39 40 41 41 42 42 43 43 43 43 43 43 43 43 43
14 16 17 18 19 19 20 21 21 21 22 21 21 20 19 19 19 19 19 19 19 19 20 20 20 20 20 21 22 22 22 23 23 23 23 23 23 23 24 24 25 25 25 26 26 27 27 28 29 30 31 32 33 33 33 34 34 35 35 36 36 37 37 38 38 39 39 39 39 40 40 41 42 42 43 44 44 45 45 46 46 46 46 46 46
14 15 16 17 18 19 19 20 20 20 21 21 21 20 19 19 19 19 19 20 20 20 21 22 22 21 21 21 22 22 23 23 23 23 23 23 24 24 24 25 25 26 26 26 27 27 28 29 29 30 31 32 33 33 34 35 35 36 37 37 38 38 39 39 40 41 41 42 42 42 42 43 43 44 44 45 45 46 47 47 47 47 47 48 48
15 15 16 17 18 18 19 19 19 19 19 20 20 19 19 19 19 19 20 20 21 21 21 22 22 21 21 21 22 22 23 23 24 24 24 25 25 26 26 26 27 27 27 27 27 28 29 30 30 31 31 32 33 33 34 35 36 36 37 38 39 39 40 40 41 42 43 44 44 44 44 45 46 46 46 47 47 47 48 48 48 48 48 48 48
17 17 18 18 18 19 19 19 19 19 19 19 19 19 19 19 20 20 20 21 21 21 21 21 22 22 21 21 21 22 23 23 24 25 26 26 27 28 28 29 29 29 29 29 29 30 31 31 31 32 32 33 33 34 35 35 36 37 38 39 40 41 41 42 43 44 45 46 46 46 46 46 47 47 47 48 48 49 49 49 49 48 48 48 48
19 20 20 20 20 20 20 20 19 19 19 19 19 19 20 20 20 20 20 20 20 21 21 21 22 22 22 22 22 22 23 24 25 26 27 28 29 29 30 31 31 31 31 31 31 32 32 33 33 33 34 34 35 35 36 37 38 39 40 41 42 43 43 44 45 46 47 47 47 47 48 48 48 48 48 49 49 50 50 50 51 51 50 50 50
20 20 21 21 21 21 21 21 20 20 20 20 19 19 19 20 19 19 20 20 20 20 21 21 21 22 23 23 23 24 24 25 26 27 28 29 29 30 31 32 32 32 32 33 34 34 34 35 35 36 37 38 38 39 40 40 41 42 43 44 44 45 46 47 47 48 48 48 49 50 50 50 50 50 50 51 51 51 52 52 52 52 52 52 52
20 21 21 21 21 21 21 20 20 20 20 20 19 19 19 19 19 19 19 20 20 20 21 21 22 22 23 24 25 25 26 27 27 28 29 29 30 31 31 32 33 33 34 34 35 36 37 37 38 39 40 41 42 42 43 44 45 46 47 47 48 50 51 51 51 51 51 52 52 52 52 52 51 51 52 52 53 53 53 53 53 53 53 53 53
21 21 21 21 20 20 20 20 19 19 19 19 19 18 18 18 18 19 19 20 20 20 21 22 23 24 25 26 26 27 28 28 28 29 29 30 30 31 31 32 33 34 35 36 37 38 39 40 40 41 42 43 44 45 47 48 49 50 51 52 53 54 54 54 55 55 55 55 55 54 54 53 52 52 52 51 51 51 52 52 53 53 53 53 54
21 21 20 20 20 19 19 18 18 18 18 18 17 17 17 17 18 18 19 19 20 21 22 23 24 25 26 26 27 27 28 28 28 29 29 30 31 32 32 33 33 35 36 37 38 39 40 41 43 44 45 46 48 49 50 51 53 54 55 56 57 56 55 55 55 56 56 55 55 54 54 53 53 52 52 51 51 51 51 51 51 51 51 52 52
20 20 19 19 19 18 18 17 17 17 17 17 17 17 17 18 18 19 20 21 21 22 23 24 25 25 25 26 26 27 27 28 28 29 30 31 32 33 34 34 35 36 38 39 40 41 43 44 46 47 49 50 51 52 53 54 55 55 56 57 57 56 55 55 55 54 54 54 53 52 51 51 51 50 50 51 51 52 53 53 52 51 50 50 49
19 18 18 18 17 17 17 17 17 17 17 17 17 17 18 19 19 20 21 22 22 23 23 24 24 25 25 26 26 27 28 29 30 30 31 32 33 34 36 37 38 39 41 42 43 45 46 48 49 50 51 52 53 53 54 54 54 55 54 54 54 54 54 53 52 51 51 51 50 49 48 48 48 48 48 49 50 51 52 52 52 51 50 48 47
19 18 18 18 18 18 18 17 17 17 17 17 18 18 19 20 20 21 22 22 23 23 23 24 24 25 25 26 27 28 29 30 31 32 33 34 36 37 38 40 41 43 44 45 47 48 49 50 51 51 52 52 52 52 52 52 52 52 51 50 50 50 49 49 48 47 47 46 46 46 45 45 46 46 46 46 46 47 48 49 49 49 47 46 44
Wind_Direction
208 212 214 214 213 212 211 213 214 212 209 208 209 210 213 219 224 223 217 212 212 214 216 218 219 219 219 220 220 222 226 226 227 230 232 232 234 235 236 235 235 236 238 240 241 242 242 241 239 239 240 241 243 244 244 244 246 248 250 254 258 261 263 265 266 265 266 272 276 280 282 284 286 289 291 294 297 301 305 308 311 313 313 316 317
212 214 218 218 217 215 214 215 217 218 215 213 214 215 217 220 225 228 225 220 217 217 220 222 223 223 224 226 227 229 232 231 230 232 235 236 238 239 241 242 241 241 242 244 245 247 249 249 247 245 245 245 247 249 249 249 249 250 253 255 259 262 264 267 270 270 270 273 278 282 284 287 290 292 295 297 300 303 307 308 310 312 312 315 316
216 217 219 221 220 219 218 217 219 221 221 220 219 220 222 224 226 228 228 227 223 222 223 224 226 227 229 231 232 234 236 237 236 236 237 239 240 240 242 245 245 246 248 249 248 249 251 251 251 250 249 249 251 252 253 253 252 253 255 257 260 263 266 269 273 275 275 277 280 283 285 288 292 294 297 299 302 305 307 308 310 311 312 314 316
217 218 220 222 224 223 221 220 221 223 224 225 224 225 228 231 231 230 230 230 229 227 227 227 227 229 232 233 233 234 236 238 240 240 240 240 241 241 241 243 245 246 248 250 249 250 251 252 252 251 251 252 256 258 259 259 259 258 260 262 264 266 270 273 277 280 281 281 283 285 287 290 292 294 296 298 302 305 306 308 310 311 312 315 318
217 219 220 223 226 227 227 225 224 224 226 228 229 229 230 233 235 234 233 233 233 231 231 231 230 230 232 234 233 234 235 236 239 241 242 243 243 242 242 242 243 244 247 249 248 249 250 250 250 249 250 253 257 260 262 262 263 263 265 267 269 271 273 276 279 281 284 286 287 290 291 293 294 295 297 300 302 304 306 308 310 311 314 317 320
221 222 222 224 227 229 230 230 229 227 227 228 231 232 232 234 236 237 237 237 237 236 236 236 235 233 233 234 235 236 236 237 238 240 243 245 245 246 246 246 245 245 247 249 250 251 250 249 249 249 250 253 256 260 262 262 264 265 266 268 271 273 274 277 280 283 286 289 291 294 296 297 298 298 299 301 302 304 305 308 311 313 316 319 321
229 228 227 227 228 230 231 232 232 231 230 229 231 233 234 236 237 238 239 239 239 239 239 239 239 237 236 236 238 239 240 241 242 243 244 247 248 250 251 252 253 252 253 253 254 254 252 251 252 253 254 255 257 260 263 265 267 268 270 272 273 276 278 281 283 286 289 292 295 297 298 299 300 300 300 301 302 305 306 308 310 312 315 317 318
232 233 233 231 230 230 232 232 233 233 233 232 233 234 235 237 238 239 239 240 240 240 240 240 240 240 239 238 239 241 242 244 245 245 245 247 249 251 252 254 256 257 258 259 259 259 258 257 257 259 261 262 263 265 268 271 273 275 277 278 279 281 282 284 286 288 291 293 295 297 298 299 300 300 300 301 302 304 305 306 308 311 313 314 316
232 235 237 237 234 232 232 232 233 234 234 234 235 236 237 238 239 240 240 240 240 240 240 240 240 240 240 239 240 241 244 245 246 246 246 246 248 250 252 254 256 258 259 260 262 263 264 264 263 263 265 268 270 271 273 275 278 280 282 284 285 285 285 286 288 289 291 294 295 297 297 298 299 299 299 301 302 302 302 303 306 309 311 313 315
231 234 237 240 240 237 235 234 234 235 236 236 236 237 238 239 239 240 241 241 240 240 239 239 240 240 240 241 241 242 244 245 244 245 246 247 248 251 253 256 258 259 260 261 262 264 265 266 266 267 269 271 272 272 273 275 277 280 283 285 288 289 290 291 292 292 293 294 295 296 297 298 299 300 300 302 302 302 304 306 307 309 310 311 313
231 233 235 237 239 238 238 237 236 236 238 238 237 237 238 239 239 239 239 239 240 241 240 240 240 240 241 240 240 241 243 244 245 246 247 249 250 251 254 257 259 261 262 262 262 263 264 265 267 270 271 271 271 271 272 273 275 277 279 282 285 288 291 292 293 293 294 295 295 296 297 298 299 299 301 301 301 302 305 306 307 308 309 310 311
229 230 231 233 235 236 237 238 238 238 239 239 238 236 237 239 240 239 239 238 239 240 240 240 240 240 241 240 240 240 241 243 245 247 248 249 250 251 252 255 258 260 261 262 262 263 264 266 267 269 271 271 272 273 273 273 274 275 276 278 281 283 286 287 289 290 290 291 291 292 293 294 294 295 296 296 297 299 302 303 304 306 307 309 310
227 227 229 231 232 232 234 236 237 237 238 239 238 235 234 237 238 239 239 238 238 238 241 242 242 242 242 242 242 242 243 244 245 246 249 250 251 252 252 253 256 259 260 262 263 263 264 265 266 267 269 271 272 273 273 274 274 275 276 277 279 280 281 283 284 285 285 285 285 285 286 288 289 291 293 293 294 297 298 300 303 304 305 307 309
226 227 229 232 233 232 232 234 235 236 236 237 238 237 235 236 237 239 240 240 239 238 240 242 243 243 245 245 245 246 246 245 246 247 249 251 252 253 253 254 256 258 259 260 261 262 263 265 266 267 268 270 271 271 272 272 272 272 273 274 276 276 277 279 281 282 283 283 284 285 287 287 289 290 291 292 294 296 298 299 300 301 303 305 306
226 228 230 232 233 232 233 233 234 235 235 235 237 240 241 241 240 238 239 241 242 240 240 242 243 245 246 247 248 248 247 247 247 247 248 250 252 253 254 255 256 258 259 260 261 263 264 264 265 266 267 268 269 270 270 271 271 271 270 270 271 273 275 276 278 280 281 282 283 285 287 288 288 289 291 293 295 297 298 299 300 301 302 302 303
223 222 224 227 229 230 232 233 234 235 236 237 237 239 243 245 244 240 239 242 244 242 241 241 242 244 245 247 248 248 247 247 246 246 246 247 250 251 253 254 255 258 260 262 263 264 264 264 265 266 266 266 267 269 270 271 271 272 272 271 271 272 273 274 275 275 277 279 282 284 285 286 287 289 291 294 296 298 298 299 301 302 301 300 301
223 222 223 225 227 229 231 234 236 238 241 243 242 241 243 244 243 240 239 244 246 244 242 243 244 244 244 247 249 249 248 247 246 246 246 246 248 250 252 254 255 257 260 262 264 265 264 263 264 265 266 267 269 270 271 272 273 273 273 273 273 273 273 273 275 275 275 277 280 282 284 286 288 290 292 294 296 297 298 299 301 302 301 301 303
222 224 225 224 225 229 233 238 240 242 245 247 247 245 245 244 242 237 235 241 245 243 241 242 244 244 242 243 247 248 248 248 247 247 247 248 249 250 251 253 253 255 257 259 261 262 263 263 264 266 269 271 272 271 272 274 274 274 274 275 274 274 273 273 275 276 276 277 277 278 281 283 285 287 289 292 294 295 297 299 301 301 301 302 304
216 218 219 218 218 222 229 235 239 240 241 242 243 244 244 242 240 236 234 238 240 241 241 241 243 245 244 243 244 246 247 247 248 250 251 250 250 249 251 254 254 254 256 257 258 260 262 264 265 267 270 271 272 272 273 274 274 274 275 276 275 275 275 274 274 275 277 279 279 279 281 282 284 285 288 290 292 293 294 296 297 298 298 300 301
211 212 212 213 214 217 222 227 231 235 237 239 242 244 241 239 237 234 233 234 234 236 239 240 242 244 244 244 245 246 247 249 249 251 252 250 249 248 249 253 255 254 254 256 259 261 264 266 267 267 268 269 270 272 273 274 274 274 275 276 276 277 277 276 276 276 278 280 281 281 282 283 284 286 288 290 291 291 291 291 292 293 294 295 296
207 210 212 213 216 219 224 226 226 229 232 234 239 241 237 235 234 230 229 230 230 231 234 236 239 243 243 244 247 247 248 250 249 250 251 251 251 249 249 251 253 253 253 255 259 263 267 270 271 270 268 267 268 271 274 275 275 274 275 276 277 278 279 279 278 278 279 281 282 283 284 285 285 285 285 286 288 288 289 291 292 292 292 293 295
207 208 210 212 214 216 222 227 225 224 223 221 224 230 231 232 234 230 226 224 220 221 225 226 229 236 239 241 244 246 247 248 248 249 251 251 251 251 251 251 252 252 253 254 256 261 266 271 272 271 267 265 266 270 274 276 278 278 278 277 277 278 279 280 280 280 281 282 284 285 286 287 286 286 286 287 288 290 293 295 296 295 296 297 299
212 212 212 215 213 210 216 222 218 215 216 216 217 224 231 234 235 232 224 213 208 212 216 214 214 223 230 234 237 240 244 246 247 248 248 249 250 251 253 256 256 256 256 256 258 262 267 271 272 270 268 267 268 271 274 278 281 282 280 279 278 279 280 281 282 282 282 283 283 284 285 286 287 288 290 291 291 292 293 295 295 296 298 300 300
213 213 212 213 214 216 223 225 214 206 210 215 215 218 225 229 228 226 222 218 217 219 217 214 217 221 222 225 228 230 234 240 244 246 249 252 254 254 256 259 261 263 265 267 268 270 273 275 275 273 272 271 272 273 276 278 280 281 281 280 279 280 280 282 283 283 284 284 284 284 284 285 286 288 290 292 293 291 290 291 292 294 296 297 299
205 203 199 194 197 208 218 222 211 199 205 210 207 208 216 219 216 214 212 215 220 220 214 216 221 220 216 218 217 212 214 223 230 236 243 250 255 257 258 260 264 268 272 274 275 274 275 276 277 276 276 276 276 277 278 279 281 282 283 283 283 283 283 284 284 284 285 285 285 285 284 285 286 287 289 291 292 291 289 289 290 291 292 294 297
193 193 192 187 186 192 200 203 196 192 200 203 198 199 206 209 206 203 198 199 206 206 202 210 222 226 224 226 223 217 219 225 231 239 246 252 257 261 264 268 271 274 276 276 276 275 275 276 277 278 279 280 282 282 282 283 283 283 283 283 284 284 285 285 286 287 287 288 289 289 288 288 288 289 290 291 292 292 292 291 290 289 288 289 291
193 195 196 197 196 196 199 203 200 197 200 203 201 202 208 211 210 209 208 208 209 209 210 217 227 237 244 246 247 248 249 253 257 262 266 270 273 276 278 280 281 281 281 281 281 281 281 282 282 283 283 284 285 285 284 284 284 284 284 284 284 285 285 286 286 287 288 289 290 291 291 292 293 293 293 294 294 295 296 295 292 290 288 288 289
205 205 206 207 207 207 208 211 211 210 212 214 215 218 222 225 224 223 227 232 233 233 236 238 241 247 253 258 262 265 268 270 273 275 277 279 280 282 283 284 285 284 284 284 284 284 284 284 285 285 285 285 284 284 284 283 283 284 284 284 285 286 286 287 287 288 288 289 289 289 290 291 292 293 294 294 295 295 295 294 294 293 293 293 294
218 219 219 219 219 220 220 221 222 222 223 224 227 230 234 238 241 242 243 247 251 253 255 257 260 263 265 268 272 274 275 276 277 278 279 280 282 283 284 285 285 285 285 285 285 285 284 284 284 285 284 285 285 284 285 285 285 286 286 286 287 287 286 287 287 287 288 288 288 288 289 289 290 290 291 292 293 292 293 293 292 292 292 292 293
224 227 229 229 229 231 232 233 233 233 234 236 238 240 243 246 250 253 254 257 259 263 265 268 270 272 273 274 275 276 277 277 278 278 279 280 281 282 284 284 284 284 284 284 284 285 285 285 285 285 285 285 286 286 287 287 288 288 289 289 290 290 290 291 290 289 288 287 287 287 287 288 288 289 289 290 290 290 290 290 290 290 290 290 290
224 227 229 231 234 236 238 239 240 241 241 243 245 247 249 251 254 257 260 263 264 265 267 268 269 271 272 274 275 276 276 277 278 279 280 281 282 282 283 283 284 284 284 284 285 285 286 287 287 287 288 288 288 289 290 291 291 292 292 293 293 294 294 295 294 293 293 292 290 290 289 289 289 289 289 289 288 288 288 289 289 289 289 289 289
225 227 229 230 233 235 237 240 242 244 245 247 248 250 252 254 256 258 260 262 264 266 267 268 269 270 271 273 274 275 277 278 279 280 281 281 282 283 283 283 283 283 282 283 283 284 284 285 285 286 287 288 289 290 291 292 293 293 294 294 295 295 296 296 295 295 295 295 294 294 293 293 292 292 292 291 290 289 289 289 289 289 290 289 289
228 229 229 231 233 235 237 238 240 243 244 246 247 249 251 252 254 255 256 257 259 261 263 264 266 268 269 271 272 273 275 276 277 278 278 278 277 277 277 277 276 276 277 277 277 278 279 280 281 283 284 285 286 287 289 290 290 291 291 292 293 294 294 294 295 295 295 294 294 294 294 294 294 294 294 294 293 293 292 291 291 291 291 291 291
235 232 231 232 234 236 237 239 240 242 243 245 247 249 251 253 254 255 256 257 257 258 260 261 262 263 265 266 267 268 268 269 269 269 270 270 270 270 269 268 268 269 270 273 274 276 277 278 280 281 282 283 284 285 286 287 287 288 289 290 290 291 291 292 293 294 294 294 295 295 295 295 295 296 296 295 295 294 294 294 293 293 293 293 293
239 236 234 234 235 236 238 239 241 243 244 246 249 251 253 255 256 257 258 259 260 261 261 261 262 262 262 263 264 265 265 265 265 264 263 262 263 264 265 266 267 268 270 272 275 278 280 281 282 284 284 285 286 287 287 287 287 287 288 288 289 290 290 291 291 292 293 294 294 294 295 295 296 297 297 296 296 295 294 294 294 293 293 293 293
239 237 236 236 237 237 238 240 243 244 246 249 251 253 254 256 257 258 259 260 261 262 263 263 264 264 264 264 264 265 266 266 266 266 266 267 268 269 270 271 273 274 275 276 277 280 282 284 285 286 287 288 289 289 289 290 290 290 290 290 291 291 292 292 293 293 294 294 294 294 295 295 295 296 296 297 297 296 296 295 295 294 294 293 293
235 234 234 236 239 240 240 242 244 246 248 250 252 254 257 258 260 262 263 264 265 265 264 264 264 265 266 266 266 266 267 267 268 270 271 273 274 275 277 278 279 279 281 282 282 283 284 285 287 288 289 290 290 291 292 292 293 293 293 293 293 294 293 294 294 294 294 295 295 295 296 296 296 296 296 296 296 296 297 297 296 296 295 295 294
234 234 233 235 238 239 239 241 243 245 248 250 252 254 256 258 260 262 263 264 265 266 267 267 266 266 268 269 271 272 273 273 273 274 275 275 276 276 277 278 279 281 282 284 285 286 287 288 289 289 290 291 291 292 293 293 294 294 294 294 294 294 294 294 294 294 294 294 295 295 296 296 296 297 296 297 297 296 296 296 296 296 296 296 296
240 237 236 236 236 237 238 239 241 244 246 247 250 252 253 254 256 258 260 262 263 265 268 270 271 273 275 275 276 277 278 279 280 280 280 280 280 279 280 280 281 282 283 284 285 286 287 288 289 290 290 291 291 292 292 292 292 292 292 292 293 293 293 293 293 293 293 294 294 295 295 295 296 296 296 297 297 297 297 297 297 297 296 296 296
245 241 239 239 238 238 238 240 241 243 245 247 248 249 250 251 252 254 257 259 261 263 266 268 270 274 277 279 280 280 281 281 282 283 283 283 283 283 283 283 284 284 285 285 286 286 286 287 287 288 288 289 290 290 290 290 290 291 291 291 291 292 292 292 292 292 292 293 293 294 294 294 295 296 296 296 297 297 297 297 297 297 297 297 297
246 243 241 240 240 240 241 242 243 245 246 247 249 249 249 250 252 254 257 261 263 266 268 269 271 273 274 276 277 278 279 280 281 281 282 282 283 283 284 284 284 285 285 286 287 287 286 286 286 286 287 287 288 288 289 289 289 289 290 290 290 291 291 292 292 293 293 293 294 294 295 295 296 296 296 296 296 296 296 296 296 296 297 297 297
243 242 241 240 241 242 244 245 246 247 248 249 250 251 252 253 255 258 261 264 266 269 271 272 273 274 273 273 274 275 276 277 278 279 280 280 281 282 283 284 284 285 286 287 288 288 287 287 287 287 288 288 288 288 289 289 289 289 289 290 290 291 292 292 292 293 293 293 294 295 296 296 296 296 296 296 296 296 296 296 296 296 296 296 296
239 238 238 240 242 243 244 246 246 247 249 251 252 254 256 258 260 262 265 267 269 271 271 272 274 274 273 273 274 275 276 277 279 280 281 282 284 285 286 286 287 288 289 290 290 289 289 289 290 290 290 290 290 290 290 290 290 291 291 291 291 291 292 293 293 293 293 294 295 295 295 295 295 296 296 296 296 296 296 296 296 296 296 296 296
236 235 235 237 239 241 242 244 247 248 250 251 252 254 256 258 260 262 264 266 267 269 270 272 274 275 275 275 275 277 278 280 282 284 286 287 289 290 291 292 293 294 295 295 294 293 293 293 294 293 293 293 293 293 292 292 293 293 292 293 293 292 292 292 293 293 294 295 295 295 294 294 295 295 294 294 294 295 295 295 295 295 295 295 295
234 234 234 235 236 239 241 244 246 248 250 251 252 253 255 257 259 260 261 263 265 267 269 271 273 275 277 279 280 281 282 284 286 287 289 290 291 292 293 294 295 296 296 296 296 296 296 296 296 296 296 296 296 296 295 295 295 295 295 295 294 294 294 294 295 295 295 294 294 294 294 294 294 294 293 293 294 293 293 294 294 294 294 294 294
233 234 234 235 236 238 240 243 244 246 247 248 249 250 252 255 256 258 260 262 265 267 270 272 275 277 280 282 283 285 286 287 288 289 290 291 291 292 293 294 295 295 295 295 296 296 296 296 296 297 297 297 297 297 297 297 297 297 297 296 296 296 297 297 297 297 296 296 296 296 296 295 295 294 294 293 293 293 293 293 293 293 293 292 292
230 232 233 235 236 238 239 240 241 243 244 246 248 250 252 254 257 259 262 265 268 270 273 276 278 280 282 283 285 286 287 288 289 290 290 291 291 292 292 293 293 294 294 294 295 295 296 296 296 296 296 296 296 296 296 297 297 297 297 296 296 297 298 297 297 297 297 297 298 298 298 297 297 296 296 295 294 294 293 293 293 292 292 292 291
226 228 231 233 235 237 238 240 241 243 245 248 250 253 255 258 261 264 266 269 272 274 276 278 280 281 282 284 285 286 288 289 289 290 290 291 292 292 292 293 293 293 294 294 294 295 295 295 295 295 295 296 296 296 296 296 296 296 296 295 296 296 296 296 296 296 297 297 297 297 297 298 298 298 298 298 298 297 296 296 295 294 293 292 292
223 226 229 232 234 236 239 241 244 247 250 253 256 259 261 264 267 269 271 274 276 277 279 280 282 283 284 286 287 288 289 290 290 291 292 293 294 294 294 294 294 294 295 295 295 295 295 295 295 295 295 295 295 295 295 295 295 294 294 295 295 295 295 295 295 295 295 296 296 296 296 296 297 297 298 298 299 300 300 300 300 299 297 295 293
221 224 227 231 234 236 239 242 245 248 251 254 258 261 265 268 271 273 275 277 278 279 281 282 283 285 286 287 288 290 291 292 293 294 294 295 295 296 296 296 296 296 296 296 295 295 295 295 295 295 295 294 294 294 294 293 293 293 293 293 293 293 293 293 293 293 293 294 294 294 294 294 294 295 296 297 299 300 301 302 302 302 300 299 296
220 224 228 232 234 237 239 241 244 247 250 254 258 262 265 268 271 273 275 277 278 279 281 282 284 285 287 288 290 291 292 293 294 295 295 295 296 296 296 296 297 296 296 296 296 296 296 295 295 294 294 293 293 292 292 292 292 291 291 291 291 291 291 291 291 291 291 291 291 291 291 291 291 292 294 296 298 300 302 303 303 302 301 300 299
Height
3231 3232 3233 3234 3236 3237 3238 3239 3240 3241 3242 3243 3244 3245 3246 3247 3248 3248 3249 3250 3251 3252 3253 3253 3254 3255 3256 3256 3257 3257 3258 3258 3259 3259 3260 3260 3261 3261 3262 3262 3263 3263 3264 3264 3264 3265 3265 3266 3266 3267 3267 3267 3268 3268 3268 3268 3268 3268 3268 3268 3268 3268 3268 3268 3268 3269 3269 3268 3267 3267 3266 3265 3265 3264 3264 3263 3262 3262 3261 3260 3259 3258 3256 3255 3254
3230 3231 3232 3233 3235 3236 3236 3238 3239 3240 3241 3242 3243 3244 3245 3246 3247 3248 3249 3250 3250 3251 3252 3253 3253 3254 3255 3255 3256 3257 3257 3258 3258 3258 3259 3260 3260 3261 3261 3262 3262 3262 3263 3263 3264 3264 3264 3264 3265 3265 3266 3266 3266 3267 3267 3267 3267 3267 3267 3267 3267 3267 3267 3267 3267 3267 3267 3267 3266 3265 3264 3264 3263 3262 3262 3261 3261 3260 3259 3258 3257 3256 3254 3254 3252
3228 3229 3231 3232 3233 3234 3235 3236 3238 3239 3240 3241 3242 3243 3244 3245 3246 3247 3248 3249 3250 3251 3251 3252 3253 3253 3254 3254 3255 3256 3256 3257 3258 3258 3258 3259 3259 3260 3261 3261 3261 3262 3262 3262 3263 3263 3263 3263 3264 3264 3265 3265 3265 3265 3266 3266 3266 3266 3266 3266 3266 3266 3265 3265 3265 3265 3265 3265 3264 3264 3263 3262 3261 3260 3260 3259 3258 3258 3257 3256 3255 3254 3253 3252 3251
3227 3228 3230 3231 3232 3233 3234 3235 3237 3238 3239 3240 3241 3242 3243 3244 3245 3246 3247 3248 3249 3250 3250 3251 3252 3252 3253 3254 3254 3255 3256 3257 3257 3258 3258 3258 3259 3259 3259 3260 3260 3261 3261 3261 3262 3262 3262 3262 3263 3263 3263 3264 3264 3264 3264 3264 3264 3265 3265 3264 3264 3264 3264 3264 3264 3263 3263 3263 3263 3262 3261 3261 3260 3259 3258 3257 3257 3256 3255 3254 3253 3253 3251 3250 3250
3225 3227 3228 3229 3230 3231 3233 3234 3235 3236 3238 3239 3240 3241 3242 3243 3244 3245 3246 3247 3248 3248 3249 3250 3251 3252 3252 3253 3254 3254 3255 3256 3256 3257 3257 3258 3258 3258 3258 3259 3259 3259 3260 3260 3261 3261 3261 3261 3261 3262 3262 3262 3263 3263 3263 3263 3263 3263 3263 3263 3263 3263 3263 3263 3262 3262 3262 3262 3261 3261 3260 3259 3258 3257 3256 3255 3255 3254 3253 3253 3252 3251 3250 3249 3248
3223 3225 3226 3227 3228 3230 3231 3232 3234 3235 3236 3237 3238 3239 3241 3242 3243 3244 3245 3245 3246 3247 3248 3249 3250 3251 3251 3252 3253 3253 3254 3255 3255 3256 3256 3257 3257 3257 3257 3258 3258 3258 3259 3259 3259 3260 3260 3260 3260 3261 3261 3261 3261 3261 3261 3261 3262 3262 3262 3262 3262 3262 3261 3261 3261 3261 3260 3260 3260 3259 3259 3258 3257 3256 3255 3254 3253 3252 3252 3251 3250 3249 3248 3247 3247
3222 3223 3224 3225 3226 3228 3229 3230 3232 3233 3234 3235 3236 3238 3239 3240 3241 3242 3243 3244 3245 3246 3247 3248 3249 3250 3250 3251 3252 3252 3253 3254 3254 3255 3255 3256 3256 3257 3257 3257 3258 3258 3258 3258 3259 3259 3259 3259 3259 3259 3259 3260 3260 3260 3260 3260 3260 3260 3260 3260 3260 3260 3260 3260 3260 3259 3259 3259 3258 3258 3257 3256 3256 3255 3253 3252 3252 3251 3250 3249 3248 3248 3247 3245 3245
3219 3221 3222 3223 3224 3225 3227 3228 3229 3230 3232 3233 3234 3236 3237 3238 3239 3240 3241 3242 3244 3245 3246 3246 3247 3248 3249 3250 3250 3251 3252 3252 3253 3253 3254 3254 3255 3256 3256 3256 3257 3257 3257 3258 3258 3258 3258 3258 3258 3258 3258 3258 3259 3259 3259 3259 3259 3259 3259 3259 3259 3259 3258 3258 3258 3258 3258 3257 3257 3256 3256 3255 3254 3253 3252 3251 3250 3250 3249 3247 3246 3246 3245 3244 3243
3217 3218 3220 3221 3222 3223 3224 3225 3227 3228 3229 3230 3232 3233 3235 3236 3237 3238 3239 3241 3242 3243 3244 3245 3246 3247 3247 3248 3249 3250 3250 3251 3251 3252 3252 3253 3254 3254 3255 3255 3256 3256 3256 3257 3257 3257 3257 3258 3257 3257 3257 3257 3257 3258 3258 3258 3258 3258 3257 3257 3257 3257 3257 3257 3256 3256 3256 3255 3255 3255 3254 3253 3253 3252 3251 3250 3249 3248 3247 3246 3245 3244 3243 3241 3241
3214 3216 3217 3218 3220 3221 3222 3223 3224 3226 3227 3228 3229 3231 3232 3234 3235 3236 3237 3239 3240 3241 3242 3243 3244 3245 3246 3247 3247 3248 3249 3249 3249 3250 3251 3252 3253 3253 3253 3254 3254 3255 3255 3255 3256 3256 3256 3256 3256 3256 3256 3256 3256 3256 3256 3256 3256 3256 3256 3256 3256 3255 3255 3255 3255 3254 3254 3253 3253 3253 3252 3252 3251 3250 3249 3248 3247 3246 3245 3244 3243 3242 3241 3239 3239
3211 3212 3214 3215 3216 3218 3219 3220 3222 3223 3224 3225 3227 3228 3230 3231 3232 3234 3235 3236 3238 3239 3240 3241 3242 3244 3244 3245 3246 3246 3246 3247 3248 3249 3250 3250 3251 3252 3252 3253 3253 3253 3254 3254 3254 3254 3255 3255 3255 3255 3255 3255 3254 3254 3254 3254 3254 3254 3254 3254 3254 3254 3254 3253 3253 3253 3252 3252 3251 3251 3250 3250 3249 3248 3247 3246 3245 3244 3243 3242 3241 3240 3238 3237 3236
3207 3209 3210 3212 3213 3214 3216 3217 3219 3221 3222 3223 3224 3225 3226 3228 3229 3231 3232 3233 3235 3236 3238 3239 3240 3242 3242 3243 3244 3243 3244 3245 3247 3247 3248 3249 3249 3250 3251 3251 3251 3252 3252 3252 3252 3253 3253 3253 3253 3253 3253 3253 3253 3252 3252 3252 3252 3252 3252 3252 3252 3252 3252 3251 3251 3251 3250 3250 3249 3249 3248 3247 3246 3246 3245 3244 3243 3242 3241 3240 3238 3237 3236 3235 3233
3203 3204 3206 3208 3209 3211 3212 3214 3215 3217 3219 3220 3221 3222 3223 3224 3225 3227 3229 3230 3232 3233 3235 3237 3238 3239 3240 3241 3241 3241 3242 3244 3245 3245 3246 3247 3247 3248 3249 3249 3249 3250 3250 3250 3250 3250 3251 3251 3251 3251 3251 3251 3251 3251 3250 3250 3250 3250 3250 3250 3250 3250 3249 3249 3248 3248 3248 3247 3246 3246 3246 3245 3244 3243 3243 3242 3240 3240 3239 3238 3237 3235 3234 3233 3231
3199 3201 3202 3204 3205 3207 3209 3210 3211 3213 3215 3216 3216 3217 3219 3221 3222 3224 3226 3227 3229 3231 3232 3234 3235 3236 3237 3238 3238 3239 3241 3242 3242 3243 3244 3244 3245 3246 3246 3247 3247 3247 3247 3248 3248 3248 3248 3248 3249 3249 3249 3248 3248 3248 3248 3248 3248 3248 3248 3248 3248 3247 3247 3246 3246 3245 3244 3244 3243 3243 3243 3242 3242 3241 3240 3239 3238 3237 3236 3235 3234 3233 3232 3230 3229
3196 3197 3198 3199 3200 3202 3204 3206 3207 3209 3210 3211 3212 3214 3216 3218 3220 3222 3224 3225 3227 3228 3230 3231 3232 3233 3234 3234 3235 3236 3238 3239 3240 3241 3241 3242 3243 3243 3244 3245 3245 3245 3245 3245 3246 3246 3246 3246 3246 3246 3246 3245 3245 3246 3246 3245 3245 3245 3245 3245 3245 3245 3244 3244 3244 3243 3242 3241 3240 3240 3240 3240 3239 3238 3237 3236 3234 3233 3232 3231 3231 3230 3228 3227 3226
3192 3193 3193 3194 3196 3197 3199 3201 3202 3204 3206 3207 3208 3210 3213 3215 3217 3219 3221 3222 3223 3225 3227 3228 3229 3230 3230 3230 3231 3234 3235 3236 3237 3238 3238 3239 3240 3240 3241 3241 3242 3242 3242 3242 3243 3243 3243 3243 3243 3243 3242 3242 3243 3243 3243 3243 3243 3242 3242 3242 3242 3242 3242 3241 3241 3241 3240 3239 3238 3237 3237 3236 3235 3235 3234 3233 3231 3230 3228 3227 3227 3226 3224 3223 3223
3188 3189 3189 3190 3191 3193 3195 3196 3198 3201 3202 3203 3204 3206 3208 3210 3213 3216 3217 3218 3220 3222 3223 3224 3225 3226 3226 3227 3229 3231 3232 3233 3234 3235 3235 3236 3237 3237 3238 3238 3238 3239 3239 3239 3239 3239 3239 3240 3240 3239 3239 3239 3240 3241 3240 3240 3240 3240 3239 3239 3239 3239 3239 3239 3238 3237 3237 3236 3235 3234 3233 3233 3232 3231 3231 3230 3229 3227 3225 3224 3224 3223 3221 3219 3218
3185 3185 3185 3187 3188 3190 3192 3194 3196 3198 3200 3201 3202 3204 3205 3207 3209 3212 3213 3214 3217 3219 3220 3221 3221 3221 3222 3224 3226 3227 3229 3230 3231 3232 3232 3233 3233 3234 3234 3234 3234 3235 3235 3236 3236 3235 3235 3236 3237 3236 3236 3237 3237 3237 3237 3237 3237 3237 3236 3236 3236 3236 3236 3236 3235 3234 3233 3233 3232 3232 3230 3230 3229 3228 3228 3227 3226 3224 3221 3220 3220 3219 3217 3216 3215
3184 3183 3184 3185 3187 3188 3190 3192 3194 3196 3197 3199 3200 3202 3202 3203 3205 3207 3208 3211 3214 3215 3217 3218 3217 3217 3219 3221 3223 3224 3225 3227 3228 3229 3229 3230 3230 3230 3230 3230 3230 3231 3232 3231 3231 3231 3232 3233 3233 3234 3234 3234 3234 3234 3234 3234 3234 3233 3233 3233 3233 3233 3233 3233 3233 3231 3230 3229 3228 3228 3227 3226 3225 3224 3224 3223 3223 3221 3219 3217 3216 3215 3213 3212 3211
3182 3183 3184 3185 3186 3187 3188 3190 3192 3194 3195 3197 3198 3199 3199 3200 3202 3203 3204 3207 3210 3212 3213 3214 3213 3214 3217 3219 3220 3221 3222 3223 3224 3225 3226 3226 3227 3227 3227 3227 3227 3228 3228 3227 3227 3228 3228 3228 3230 3231 3231 3231 3230 3230 3230 3230 3230 3230 3229 3229 3229 3229 3229 3229 3229 3228 3226 3225 3224 3223 3222 3222 3221 3220 3219 3219 3218 3216 3215 3214 3212 3211 3209 3208 3207
3180 3181 3182 3184 3185 3186 3187 3189 3190 3192 3193 3194 3196 3197 3197 3199 3200 3201 3202 3204 3206 3208 3210 3210 3210 3212 3214 3216 3217 3218 3219 3220 3220 3221 3222 3222 3223 3223 3224 3224 3224 3224 3225 3225 3224 3224 3224 3225 3226 3227 3227 3227 3227 3227 3226 3226 3226 3226 3226 3226 3225 3225 3225 3225 3224 3223 3222 3221 3220 3219 3218 3217 3216 3215 3214 3213 3212 3210 3209 3209 3208 3206 3205 3203 3202
3178 3179 3181 3183 3184 3185 3186 3187 3188 3190 3191 3192 3193 3195 3196 3197 3198 3199 3200 3201 3203 3205 3206 3207 3209 3210 3212 3213 3214 3215 3216 3217 3217 3218 3219 3219 3220 3220 3220 3220 3220 3221 3221 3221 3221 3221 3222 3222 3222 3223 3223 3223 3223 3223 3223 3222 3222 3222 3222 3222 3221 3221 3220 3220 3219 3219 3218 3217 3216 3215 3214 3213 3211 3210 3209 3209 3207 3206 3206 3205 3204 3202 3201 3199 3198
3178 3179 3180 3181 3182 3183 3185 3186 3186 3188 3189 3190 3191 3193 3194 3195 3196 3197 3198 3199 3201 3203 3204 3205 3206 3207 3208 3210 3211 3212 3213 3214 3215 3215 3216 3216 3217 3217 3217 3217 3217 3217 3217 3217 3218 3218 3218 3219 3219 3219 3219 3219 3219 3219 3219 3218 3218 3218 3218 3217 3217 3216 3216 3215 3215 3214 3214 3213 3212 3211 3210 3208 3206 3206 3205 3204 3203 3202 3202 3201 3200 3199 3197 3196 3195
3177 3178 3179 3180 3181 3182 3183 3184 3184 3185 3187 3189 3190 3191 3192 3193 3194 3195 3196 3198 3199 3200 3202 3203 3203 3203 3204 3205 3207 3208 3209 3211 3212 3212 3213 3213 3213 3214 3214 3214 3214 3214 3214 3214 3215 3215 3215 3216 3216 3216 3216 3215 3215 3215 3214 3214 3214 3214 3213 3213 3212 3212 3212 3211 3210 3210 3209 3208 3207 3206 3205 3204 3203 3202 3201 3200 3199 3198 3197 3197 3196 3196 3194 3193 3192
3175 3176 3177 3179 3180 3181 3182 3183 3184 3184 3186 3187 3188 3189 3191 3192 3193 3194 3195 3196 3197 3198 3200 3201 3201 3202 3203 3203 3204 3205 3207 3208 3209 3210 3210 3211 3211 3211 3211 3212 3212 3212 3212 3212 3212 3212 3213 3213 3213 3213 3212 3212 3211 3211 3211 3210 3210 3210 3210 3209 3208 3208 3208 3207 3206 3206 3205 3204 3203 3202 3202 3201 3200 3199 3198 3197 3196 3195 3194 3193 3193 3192 3191 3190 3189
3174 3175 3176 3177 3179 3180 3181 3182 3183 3184 3185 3186 3187 3188 3189 3191 3193 3194 3194 3195 3196 3197 3198 3199 3200 3201 3202 3202 3203 3204 3206 3207 3207 3208 3208 3209 3210 3210 3210 3210 3210 3209 3210 3210 3210 3210 3210 3210 3210 3210 3209 3208 3208 3207 3207 3207 3207 3207 3206 3206 3205 3205 3204 3203 3203 3202 3201 3201 3200 3199 3198 3197 3196 3195 3195 3194 3193 3192 3191 3190 3189 3189 3187 3186 3186
3173 3174 3175 3176 3177 3179 3180 3181 3182 3183 3184 3185 3185 3186 3188 3190 3191 3193 3193 3194 3194 3196 3197 3197 3198 3199 3200 3201 3202 3203 3204 3204 3205 3206 3206 3207 3207 3207 3207 3207 3207 3207 3207 3207 3207 3207 3207 3207 3206 3206 3205 3205 3204 3204 3203 3203 3203 3203 3203 3202 3201 3201 3200 3200 3199 3198 3198 3197 3196 3195 3194 3193 3192 3192 3191 3191 3190 3189 3188 3187 3186 3185 3184 3182 3182
3172 3173 3174 3175 3176 3177 3178 3179 3180 3181 3182 3183 3184 3185 3187 3188 3189 3190 3191 3192 3193 3194 3195 3196 3197 3198 3199 3199 3200 3200 3201 3202 3202 3203 3203 3204 3204 3204 3204 3204 3204 3204 3204 3204 3203 3203 3203 3203 3202 3201 3201 3200 3200 3200 3200 3199 3199 3199 3198 3198 3197 3197 3196 3195 3195 3194 3193 3193 3192 3191 3190 3189 3188 3188 3187 3187 3186 3185 3184 3183 3182 3181 3180 3179 3178
3171 3172 3173 3174 3175 3176 3177 3178 3179 3180 3181 3182 3183 3184 3185 3186 3187 3189 3190 3190 3191 3192 3193 3194 3194 3195 3196 3197 3197 3198 3199 3199 3200 3200 3201 3201 3201 3201 3201 3201 3200 3200 3200 3199 3199 3199 3199 3198 3198 3197 3197 3196 3196 3196 3195 3195 3194 3194 3194 3193 3192 3192 3191 3191 3190 3189 3189 3188 3187 3186 3186 3185 3184 3183 3183 3182 3181 3180 3179 3179 3178 3177 3177 3176 3175
3169 3170 3171 3172 3173 3174 3175 3176 3177 3178 3179 3180 3181 3182 3183 3184 3185 3186 3187 3188 3189 3190 3190 3191 3192 3193 3193 3194 3195 3195 3196 3196 3197 3197 3198 3198 3198 3198 3197 3197 3197 3197 3196 3196 3195 3195 3195 3194 3194 3194 3193 3193 3192 3192 3191 3191 3190 3189 3189 3188 3187 3187 3186 3186 3185 3185 3184 3183 3183 3182 3181 3181 3180 3179 3179 3178 3177 3176 3175 3174 3173 3172 3172 3171 3170
3167 3168 3169 3170 3171 3172 3173 3174 3175 3176 3177 3178 3179 3180 3181 3182 3183 3184 3185 3185 3186 3187 3188 3188 3189 3190 3190 3191 3191 3192 3192 3193 3193 3194 3194 3194 3194 3194 3194 3194 3193 3193 3193 3192 3192 3192 3191 3191 3191 3190 3190 3189 3189 3188 3187 3187 3186 3185 3185 3184 3183 3183 3182 3182 3181 3180 3180 3179 3178 3178 3177 3177 3176 3175 3175 3174 3173 3172 3171 3170 3169 3168 3167 3166 3165
3165 3166 3167 3168 3169 3169 3170 3171 3172 3173 3174 3175 3176 3177 3178 3179 3180 3181 3182 3183 3183 3184 3185 3185 3186 3186 3187 3187 3188 3188 3188 3189 3189 3190 3190 3190 3190 3190 3190 3190 3190 3190 3189 3189 3189 3189 3188 3188 3188 3187 3187 3186 3186 3185 3184 3184 3183 3182 3182 3181 3180 3179 3179 3178 3178 3177 3176 3175 3175 3174 3173 3173 3172 3171 3171 3170 3169 3168 3167 3166 3165 3164 3163 3162 3161
3162 3163 3164 3165 3166 3167 3168 3168 3169 3170 3171 3172 3173 3174 3175 3176 3177 3178 3179 3180 3181 3182 3182 3183 3183 3183 3184 3184 3184 3184 3185 3185 3186 3186 3186 3186 3186 3186 3187 3187 3187 3186 3186 3186 3186 3186 3186 3185 3185 3185 3184 3183 3183 3182 3182 3181 3180 3180 3179 3178 3177 3176 3176 3175 3174 3174 3173 3172 3171 3170 3170 3169 3168 3168 3167 3166 3165 3164 3163 3162 3161 3160 3159 3158 3157
3160 3160 3162 3163 3163 3164 3165 3166 3167 3168 3169 3169 3170 3171 3172 3173 3174 3175 3176 3177 3177 3178 3179 3180 3180 3181 3181 3181 3181 3182 3182 3182 3183 3183 3183 3184 3183 3183 3184 3184 3184 3184 3183 3183 3183 3183 3182 3182 3182 3182 3181 3180 3180 3179 3179 3178 3177 3176 3176 3175 3174 3173 3172 3172 3171 3170 3169 3168 3167 3166 3166 3165 3164 3163 3163 3162 3161 3160 3159 3158 3156 3155 3154 3153 3152
3157 3158 3159 3160 3160 3161 3162 3163 3164 3165 3166 3166 3167 3168 3169 3170 3171 3172 3172 3173 3174 3175 3176 3176 3177 3177 3178 3178 3179 3179 3179 3180 3180 3180 3181 3181 3181 3181 3181 3181 3181 3180 3180 3180 3180 3179 3179 3179 3178 3178 3177 3177 3176 3176 3175 3174 3174 3173 3172 3171 3171 3170 3169 3168 3167 3166 3166 3164 3163 3162 3162 3161 3160 3159 3158 3157 3157 3156 3155 3154 3152 3151 3150 3149 3148
3155 3156 3157 3157 3157 3158 3159 3160 3161 3162 3162 3163 3164 3165 3166 3167 3168 3168 3169 3170 3171 3172 3172 3173 3173 3174 3174 3175 3176 3176 3176 3177 3177 3177 3177 3177 3177 3177 3177 3177 3177 3177 3177 3177 3177 3176 3175 3175 3174 3174 3173 3173 3172 3171 3171 3170 3169 3168 3168 3167 3166 3165 3164 3164 3163 3162 3161 3160 3159 3158 3157 3156 3155 3154 3153 3153 3152 3150 3149 3149 3148 3146 3145 3144 3143
3151 3152 3153 3154 3155 3155 3156 3157 3158 3159 3159 3160 3161 3162 3162 3163 3164 3165 3166 3166 3167 3168 3169 3169 3170 3170 3171 3172 3172 3172 3173 3173 3174 3174 3174 3174 3174 3174 3174 3174 3173 3173 3173 3173 3173 3172 3172 3171 3171 3170 3169 3168 3168 3167 3166 3165 3164 3164 3163 3162 3162 3161 3160 3159 3158 3157 3157 3155 3154 3153 3152 3151 3150 3149 3148 3147 3146 3145 3144 3143 3142 3141 3140 3138 3137
3147 3148 3150 3151 3152 3153 3153 3154 3155 3156 3156 3157 3158 3159 3159 3160 3160 3161 3162 3162 3163 3164 3165 3166 3167 3167 3168 3168 3168 3169 3169 3169 3170 3171 3171 3171 3171 3171 3171 3171 3170 3170 3170 3169 3169 3168 3168 3167 3166 3166 3165 3164 3163 3162 3161 3161 3160 3159 3158 3157 3157 3156 3155 3154 3153 3152 3152 3150 3149 3148 3147 3145 3144 3143 3142 3141 3140 3139 3138 3137 3136 3134 3134 3132 3131
3144 3145 3146 3147 3148 3149 3150 3151 3152 3153 3153 3154 3155 3156 3157 3157 3158 3158 3159 3159 3160 3161 3161 3162 3163 3163 3164 3164 3164 3165 3165 3165 3165 3166 3166 3166 3167 3167 3167 3167 3166 3166 3166 3165 3165 3164 3163 3163 3162 3161 3160 3159 3158 3158 3157 3156 3155 3154 3153 3152 3151 3151 3150 3149 3148 3147 3146 3145 3144 3143 3142 3140 3139 3138 3137 3135 3134 3133 3132 3131 3129 3128 3127 3126 3125
3141 3142 3142 3144 3145 3146 3147 3148 3149 3149 3150 3151 3152 3153 3154 3155 3155 3156 3156 3157 3157 3158 3158 3159 3160 3160 3160 3160 3160 3161 3161 3161 3161 3161 3161 3161 3162 3162 3162 3162 3161 3161 3161 3161 3160 3160 3159 3158 3157 3156 3156 3155 3154 3153 3152 3151 3150 3149 3148 3147 3146 3145 3144 3144 3142 3141 3140 3140 3139 3138 3136 3135 3134 3132 3131 3129 3128 3127 3125 3124 3123 3122 3120 3119 3118
3138 3139 3139 3140 3141 3142 3144 3145 3146 3146 3147 3148 3149 3150 3151 3152 3152 3153 3153 3154 3154 3155 3155 3156 3156 3157 3157 3157 3157 3157 3157 3157 3157 3157 3157 3157 3157 3157 3157 3157 3156 3156 3156 3156 3155 3155 3154 3154 3153 3152 3151 3150 3149 3148 3147 3146 3145 3144 3143 3142 3141 3140 3139 3138 3137 3135 3134 3133 3133 3132 3130 3129 3128 3127 3125 3123 3122 3120 3119 3118 3116 3115 3114 3112 3111
3135 3136 3137 3138 3139 3140 3141 3142 3142 3143 3144 3145 3146 3147 3148 3148 3149 3149 3150 3150 3151 3151 3152 3152 3152 3153 3154 3154 3154 3154 3153 3153 3153 3153 3153 3153 3152 3152 3152 3152 3152 3151 3151 3151 3150 3150 3149 3148 3147 3147 3146 3145 3144 3143 3142 3141 3140 3139 3138 3137 3136 3135 3133 3132 3131 3129 3128 3127 3127 3126 3124 3123 3122 3120 3119 3117 3115 3114 3112 3111 3110 3108 3107 3105 3104
3133 3133 3134 3135 3136 3137 3138 3139 3139 3140 3141 3142 3143 3143 3144 3145 3145 3146 3146 3146 3147 3147 3148 3148 3148 3149 3150 3150 3150 3150 3149 3149 3149 3149 3148 3148 3147 3147 3147 3146 3146 3146 3146 3146 3145 3144 3143 3142 3142 3141 3140 3140 3139 3138 3137 3136 3135 3134 3132 3131 3130 3129 3128 3126 3125 3123 3122 3121 3120 3119 3118 3116 3115 3114 3112 3110 3109 3107 3106 3104 3103 3102 3100 3099 3097
3130 3131 3131 3132 3133 3134 3135 3136 3136 3137 3138 3139 3140 3140 3141 3141 3142 3142 3143 3143 3144 3144 3144 3144 3145 3145 3145 3145 3146 3145 3145 3145 3144 3144 3143 3143 3142 3141 3141 3141 3140 3140 3139 3139 3138 3138 3137 3136 3136 3135 3134 3133 3132 3131 3130 3129 3128 3127 3126 3124 3123 3122 3121 3120 3118 3117 3116 3114 3113 3112 3111 3110 3108 3107 3105 3104 3102 3100 3099 3098 3096 3095 3093 3092 3090
3126 3127 3128 3129 3130 3131 3132 3133 3133 3134 3135 3136 3136 3137 3137 3138 3139 3139 3140 3140 3141 3141 3141 3141 3141 3141 3141 3141 3141 3141 3141 3141 3140 3140 3139 3139 3138 3137 3136 3135 3135 3134 3134 3133 3132 3131 3130 3130 3129 3128 3127 3126 3125 3124 3123 3122 3121 3120 3118 3117 3115 3114 3113 3112 3111 3110 3108 3107 3106 3104 3103 3102 3101 3099 3098 3096 3095 3093 3092 3091 3089 3087 3086 3085 3083
3123 3124 3125 3126 3127 3128 3129 3130 3130 3131 3132 3132 3133 3134 3134 3135 3136 3136 3137 3137 3137 3138 3138 3138 3138 3138 3138 3138 3137 3137 3137 3137 3136 3136 3135 3135 3134 3133 3132 3131 3130 3129 3128 3127 3126 3126 3125 3124 3123 3121 3120 3119 3118 3117 3115 3114 3113 3112 3110 3109 3107 3106 3104 3103 3102 3101 3099 3098 3096 3095 3094 3093 3092 3091 3089 3088 3087 3085 3084 3082 3081 3079 3078 3077 3075
3119 3120 3121 3122 3124 3124 3125 3126 3127 3128 3128 3129 3130 3131 3131 3132 3132 3133 3133 3133 3134 3134 3134 3134 3134 3134 3134 3134 3133 3133 3133 3132 3132 3131 3130 3130 3129 3129 3128 3127 3126 3125 3124 3122 3121 3120 3119 3118 3117 3115 3114 3113 3112 3110 3109 3107 3106 3104 3103 3101 3099 3098 3097 3095 3093 3092 3090 3089 3087 3086 3084 3083 3082 3081 3079 3078 3077 3076 3075 3074 3072 3071 3069 3068 3066
3116 3117 3118 3119 3120 3121 3122 3123 3124 3125 3125 3126 3127 3127 3128 3128 3129 3129 3130 3130 3130 3130 3130 3130 3130 3130 3130 3129 3129 3128 3128 3127 3127 3126 3126 3125 3124 3123 3123 3122 3121 3120 3119 3117 3116 3115 3114 3112 3111 3109 3108 3106 3105 3104 3102 3100 3099 3097 3095 3093 3092 3091 3089 3087 3085 3084 3082 3081 3079 3078 3076 3074 3073 3071 3069 3068 3067 3065 3065 3064 3063 3062 3061 3060 3058
3113 3114 3115 3116 3117 3118 3119 3120 3121 3121 3122 3123 3123 3124 3124 3125 3125 3125 3126 3126 3126 3126 3126 3126 3126 3125 3125 3125 3124 3124 3123 3123 3122 3121 3120 3120 3119 3118 3117 3116 3115 3114 3113 3112 3110 3109 3108 3106 3104 3103 3101 3100 3098 3096 3095 3093 3091 3089 3087 3085 3084 3083 3081 3079 3078 3077 3075 3073 3072 3070 3069 3067 3066 3064 3062 3060 3058 3056 3055 3053 3052 3051 3051 3050 3049
3110 3111 3112 3113 3114 3115 3116 3117 3118 3119 3119 3120 3120 3121 3121 3121 3121 3122 3122 3122 3122 3122 3121 3121 3121 3121 3120 3120 3119 3119 3118 3117 3117 3116 3115 3114 3113 3112 3111 3110 3109 3108 3106 3105 3104 3102 3101 3099 3098 3096 3094 3093 3091 3089 3087 3086 3084 3082 3081 3079 3077 3075 3074 3072 3071 3070 3068 3067 3066 3064 3062 3060 3059 3057 3056 3054 3051 3049 3047 3045 3043 3042 3041 3040 3039
3107 3108 3110 3111 3112 3113 3114 3114 3115 3116 3117 3117 3118 3118 3118 3118 3118 3118 3118 3118 3118 3118 3117 3117 3117 3116 3116 3115 3115 3114 3113 3112 3111 3110 3109 3108 3107 3106 3105 3104 3102 3101 3100 3098 3096 3095 3093 3092 3090 3089 3087 3085 3083 3082 3080 3078 3077 3075 3073 3072 3070 3069 3067 3066 3064 3063 3062 3060 3059 3058 3056 3055 3053 3051 3050 3048 3046 3043 3041 3039 3037 3035 3033 3032 3031